Location: Hamilton
(37.7830°S, 175.2830°E)
Time: 06:37:28
(UTC+13:00)

Cosmos 1707 Rocket - Pass Details

Date: 24 January 2019
Orbit: 604 x 633 km, 82.5° (Epoch: 19 February)

Event Time Altitude Azimuth Distance (km) Brightness Sun altitude
Exits shadow 22:55:33 68° 72° (ENE) 661 3.4 -22.3°
Maximum altitude 22:55:40 69° 86° (E) 659 3.4 -22.3°
Drops below altitude 10° 23:00:02 10° 168° (SSE) 1,987 6.6 -22.9°
Sets 23:02:17 0° 170° (S) 2,902 7.6 -23.1°
